Regional Weather Roundup
Issued by NWS Charleston, WV

Home | Current Version | Previous Version | Graphics & Text | Print | Product List | Glossary On
Versions: 1 2 3 4 5 6 7 8 9 10 11 12 13 14 15 16 17 18 19 20 21 22 23 24 25 26 27 28 29 30 31 32 33 34 35 36 37 38 39 40 41 42 43 44 45 46 47 48 49 50
000
ASUS41 KRLX 292010
RWRRLX
West Virginia Regional Weather Roundup
National Weather Service Charleston WV
400 PM EDT FRI APR 29 2016

Note: "fair" indicates few or no clouds below 12,000 feet with no
significant weather and/or obstructions to visibility.

WVZ003-292100-
Northern Panhandle of West Virginia

CITY           SKY/WX    TMP DP  RH WIND       PRES   REMARKS
WHEELING       CLOUDY    58  48  69 W9        29.98F
$$

WVZ009-292100-
Northwest West Virginia

CITY           SKY/WX    TMP DP  RH WIND       PRES   REMARKS
PARKERSBURG    CLOUDY    62  52  69 W12G20    30.02S
$$

WVZ006-292100-
Western West Virginia

CITY           SKY/WX    TMP DP  RH WIND       PRES   REMARKS
HUNTINGTON       N/A     76  51  41 W8        29.96F
$$

WVZ015-292100-
West Central West Virginia

CITY           SKY/WX    TMP DP  RH WIND       PRES   REMARKS
CHARLESTON       N/A     75  49  39 W6G16     29.94F
$$

WVZ022-031-292100-
North Central West Virginia

CITY           SKY/WX    TMP DP  RH WIND       PRES   REMARKS
CLARKSBURG     PTSUNNY   67  55  65 NW13      29.95S
MORGANTOWN       N/A     69  48  47 VRB7      29.96F
$$

WVZ025-035-042-045-292100-
Southern West Virginia

CITY           SKY/WX    TMP DP  RH WIND       PRES   REMARKS
BECKLEY          N/A     73  45  36 W10G20    29.98F
LOGAN          NOT AVBL
BLUEFIELD        N/A     72  43  35 W13G20    30.01F
LEWISBURG        N/A     74  42  32 W8G17     29.97F
$$

WVZ047-292100-
Northern Mountains of West Virginia

CITY           SKY/WX    TMP DP  RH WIND       PRES   REMARKS
ELKINS         PTSUNNY   70  48  45 W8        29.95F
$$

WVZ052-292100-
Eastern Panhandle of West Virginia

CITY           SKY/WX    TMP DP  RH WIND       PRES   REMARKS
MARTINSBURG    CLOUDY    51  47  86 NE3       30.01F FOG
PETERSBURG       N/A     66  56  70 NE5       29.94F
$$



USA.gov is the U.S. government's official web portal to all federal, state and local government web resources and services.